PUA2603 SUMU-SCEL

Flight info

Callsign PUA2603
Flight time 2h 14m
Altitude 38000
Route DAGUS UL405 TOSOR UT687 UMKAL UMKAL7C
Aircraft A20N/M-SDE2E3FGHIRWXY/LB1

Departure

Time 2026-04-25 23:31
Airport Carrasco General Cesáreo L. Berisso International Airport (SUMU)

Arrival

Time 2026-04-26 01:45
Airport Comodoro Arturo Merino Benítez International Airport (SCEL)
Time Latitude Longitude Altitude Speed Heading
2026-04-25 23:08 -34.83653 -56.01857 75 ft 0 kts 143°
2026-04-25 23:22 -34.83640 -56.01868 75 ft 2 kts 143°
2026-04-25 23:23 -34.83617 -56.01891 75 ft 2 kts 143°
2026-04-25 23:23 -34.83604 -56.01902 76 ft 2 kts 143°
2026-04-25 23:23 -34.83596 -56.01909 76 ft 1 kts 143°
2026-04-25 23:23 -34.83590 -56.01918 76 ft 1 kts 89°
2026-04-25 23:24 -34.83592 -56.01928 76 ft 0 kts 47°
2026-04-25 23:24 -34.83597 -56.01933 76 ft 0 kts 53°
2026-04-25 23:26 -34.83596 -56.01933 76 ft 0 kts 53°
2026-04-25 23:26 -34.83567 -56.01886 77 ft 10 kts 53°
2026-04-25 23:26 -34.83528 -56.01823 80 ft 8 kts 52°
2026-04-25 23:27 -34.83482 -56.01765 81 ft 11 kts 23°
2026-04-25 23:27 -34.83405 -56.01805 83 ft 13 kts 321°
2026-04-25 23:27 -34.83323 -56.01854 84 ft 12 kts
2026-04-25 23:27 -34.83256 -56.01785 85 ft 12 kts 53°
2026-04-25 23:28 -34.83204 -56.01703 87 ft 11 kts 53°
2026-04-25 23:28 -34.83156 -56.01624 89 ft 10 kts 53°
2026-04-25 23:28 -34.83110 -56.01548 93 ft 12 kts 54°
2026-04-25 23:28 -34.83050 -56.01449 95 ft 16 kts 53°
2026-04-25 23:29 -34.82984 -56.01341 100 ft 14 kts 54°
2026-04-25 23:29 -34.82925 -56.01247 102 ft 13 kts 35°
2026-04-25 23:29 -34.82842 -56.01266 102 ft 13 kts 323°
2026-04-25 23:29 -34.82800 -56.01362 99 ft 10 kts 248°
2026-04-25 23:30 -34.82815 -56.01395 98 ft 1 kts 234°
2026-04-25 23:30 -34.82852 -56.01456 96 ft 34 kts 234°
2026-04-25 23:30 -34.83151 -56.01952 82 ft 109 kts 233°
2026-04-25 23:30 -34.83734 -56.02906 69 ft 168 kts 233°
2026-04-25 23:31 -34.84491 -56.04139 450 ft 185 kts 233°
2026-04-25 23:31 -34.85244 -56.05351 1254 ft 181 kts 233°
2026-04-25 23:31 -34.85936 -56.06610 2009 ft 180 kts 247°
2026-04-25 23:31 -34.86228 -56.08116 2492 ft 194 kts 267°
2026-04-25 23:32 -34.86298 -56.09830 2971 ft 212 kts 264°
2026-04-25 23:32 -34.86512 -56.11705 3439 ft 231 kts 262°
2026-04-25 23:32 -34.86779 -56.13675 3984 ft 246 kts 260°
2026-04-25 23:32 -34.87088 -56.15782 4572 ft 260 kts 259°
2026-04-25 23:33 -34.87413 -56.17926 5391 ft 263 kts 259°
2026-04-25 23:33 -34.87748 -56.20098 6260 ft 265 kts 258°
2026-04-25 23:33 -34.88090 -56.22295 7107 ft 266 kts 259°
2026-04-25 23:33 -34.88441 -56.24523 7963 ft 268 kts 259°
2026-04-25 23:34 -34.88786 -56.26714 8780 ft 269 kts 259°
2026-04-25 23:34 -34.89138 -56.28960 9578 ft 270 kts 259°
2026-04-25 23:34 -34.89487 -56.31188 10332 ft 272 kts 259°
2026-04-25 23:34 -34.89849 -56.33499 10780 ft 286 kts 260°
2026-04-25 23:35 -34.90233 -56.35971 11100 ft 303 kts 260°
2026-04-25 23:35 -34.90630 -56.38526 11441 ft 318 kts 260°
2026-04-25 23:35 -34.91048 -56.41206 12064 ft 323 kts 260°
2026-04-25 23:35 -34.91463 -56.43868 12796 ft 324 kts 260°
2026-04-25 23:36 -34.91886 -56.46589 13529 ft 326 kts 261°
2026-04-25 23:36 -34.92300 -56.49256 14213 ft 327 kts 261°
2026-04-25 23:36 -34.92725 -56.52007 14890 ft 329 kts 261°
2026-04-25 23:36 -34.93147 -56.54740 15527 ft 332 kts 261°
2026-04-25 23:37 -34.93577 -56.57533 16135 ft 335 kts 261°
2026-04-25 23:37 -34.94006 -56.60326 16661 ft 339 kts 261°
2026-04-25 23:37 -34.94437 -56.63138 17220 ft 343 kts 261°
2026-04-25 23:37 -34.94875 -56.65989 17795 ft 345 kts 262°
2026-04-25 23:38 -34.95320 -56.68901 18387 ft 347 kts 262°
2026-04-25 23:38 -34.95760 -56.71783 18966 ft 349 kts 262°
2026-04-25 23:38 -34.96201 -56.74672 19538 ft 351 kts 262°
2026-04-25 23:38 -34.96646 -56.77596 20116 ft 352 kts 262°
2026-04-25 23:39 -34.97089 -56.80513 20673 ft 354 kts 262°
2026-04-25 23:39 -34.97537 -56.83466 21199 ft 356 kts 262°
2026-04-25 23:39 -34.97923 -56.86471 21729 ft 357 kts 264°
2026-04-25 23:39 -34.98161 -56.89489 22255 ft 359 kts 268°
2026-04-25 23:40 -34.98250 -56.92499 22762 ft 361 kts 270°
2026-04-25 23:40 -34.98248 -56.95582 23258 ft 363 kts 271°
2026-04-25 23:40 -34.98238 -56.98650 23741 ft 365 kts 271°
2026-04-25 23:40 -34.98225 -57.01735 24214 ft 366 kts 271°
2026-04-25 23:41 -34.98212 -57.04810 24645 ft 369 kts 271°
2026-04-25 23:41 -34.98199 -57.07929 25070 ft 370 kts 271°
2026-04-25 23:41 -34.98184 -57.11105 25511 ft 372 kts 271°
2026-04-25 23:41 -34.98172 -57.14249 25898 ft 374 kts 271°
2026-04-25 23:42 -34.98159 -57.17401 26291 ft 375 kts 271°
2026-04-25 23:42 -34.98143 -57.20581 26688 ft 376 kts 271°
2026-04-25 23:42 -34.98127 -57.23756 27060 ft 377 kts 271°
2026-04-25 23:42 -34.98108 -57.26978 27442 ft 379 kts 271°
2026-04-25 23:43 -34.98089 -57.30171 27781 ft 380 kts 271°
2026-04-25 23:43 -34.98071 -57.33371 28115 ft 381 kts 272°
2026-04-25 23:43 -34.98051 -57.36594 28433 ft 382 kts 272°
2026-04-25 23:43 -34.98028 -57.39837 28711 ft 383 kts 272°
2026-04-25 23:44 -34.98005 -57.43053 29055 ft 382 kts 271°
2026-04-25 23:44 -34.97984 -57.46276 29465 ft 379 kts 272°
2026-04-25 23:44 -34.97960 -57.49487 29835 ft 377 kts 272°
2026-04-25 23:44 -34.97935 -57.52655 30180 ft 375 kts 272°
2026-04-25 23:45 -34.97909 -57.55854 30432 ft 375 kts 272°
2026-04-25 23:45 -34.97882 -57.59021 30678 ft 374 kts 272°
2026-04-25 23:45 -34.97854 -57.62178 30890 ft 373 kts 272°
2026-04-25 23:45 -34.97827 -57.65353 31101 ft 373 kts 272°
2026-04-25 23:46 -34.97796 -57.68483 31338 ft 372 kts 272°
2026-04-25 23:46 -34.97767 -57.71639 31581 ft 371 kts 272°
2026-04-25 23:46 -34.97737 -57.74819 31805 ft 371 kts 272°
2026-04-25 23:46 -34.97707 -57.77932 32019 ft 370 kts 272°
2026-04-25 23:47 -34.97672 -57.81089 32253 ft 369 kts 272°
2026-04-25 23:47 -34.97560 -57.84231 32449 ft 368 kts 275°
2026-04-25 23:47 -34.97325 -57.87362 32606 ft 369 kts 277°
2026-04-25 23:47 -34.96972 -57.90465 32779 ft 369 kts 279°
2026-04-25 23:48 -34.96500 -57.93556 32963 ft 368 kts 281°
2026-04-25 23:48 -34.95922 -57.96556 33148 ft 367 kts 283°
2026-04-25 23:48 -34.95227 -57.99598 33338 ft 367 kts 284°
2026-04-25 23:48 -34.94536 -58.02557 33527 ft 365 kts 284°
2026-04-25 23:49 -34.93842 -58.05537 33735 ft 364 kts 284°
2026-04-25 23:49 -34.93149 -58.08487 33949 ft 363 kts 284°
2026-04-25 23:49 -34.92446 -58.11472 34145 ft 362 kts 284°
2026-04-25 23:49 -34.91752 -58.14415 34310 ft 362 kts 284°
2026-04-25 23:50 -34.91055 -58.17349 34455 ft 362 kts 284°
2026-04-25 23:50 -34.90352 -58.20306 34627 ft 362 kts 284°
2026-04-25 23:50 -34.89656 -58.23239 34793 ft 361 kts 284°
2026-04-25 23:50 -34.88950 -58.26205 34946 ft 361 kts 284°
2026-04-25 23:51 -34.88247 -58.29149 35092 ft 361 kts 284°
2026-04-25 23:51 -34.87550 -58.32068 35218 ft 361 kts 284°
2026-04-25 23:51 -34.86852 -58.34986 35350 ft 361 kts 283°
2026-04-25 23:51 -34.86146 -58.37935 35489 ft 360 kts 284°
2026-04-25 23:52 -34.85442 -58.40876 35632 ft 359 kts 283°
2026-04-25 23:52 -34.84739 -58.43799 35758 ft 359 kts 283°
2026-04-25 23:52 -34.84039 -58.46716 35863 ft 359 kts 284°
2026-04-25 23:52 -34.83347 -58.49634 35975 ft 358 kts 283°
2026-04-25 23:53 -34.82751 -58.52583 36067 ft 358 kts 281°
2026-04-25 23:53 -34.81881 -58.58580 36199 ft 359 kts 277°
2026-04-25 23:54 -34.81223 -58.64571 36333 ft 360 kts 276°
2026-04-25 23:54 -34.80557 -58.70591 36511 ft 361 kts 277°
2026-04-25 23:55 -34.79889 -58.76671 36666 ft 362 kts 277°
2026-04-25 23:55 -34.79215 -58.82781 36832 ft 362 kts 277°
2026-04-25 23:56 -34.78539 -58.88886 36952 ft 363 kts 276°
2026-04-25 23:56 -34.77856 -58.95024 37089 ft 364 kts 277°
2026-04-25 23:57 -34.77175 -59.01142 37201 ft 364 kts 277°
2026-04-25 23:57 -34.76488 -59.07274 37310 ft 365 kts 276°
2026-04-25 23:58 -34.75798 -59.13394 37404 ft 365 kts 276°
2026-04-25 23:58 -34.75107 -59.19494 37478 ft 366 kts 276°
2026-04-25 23:59 -34.74410 -59.25649 37548 ft 366 kts 276°
2026-04-25 23:59 -34.73711 -59.31779 37609 ft 366 kts 276°
2026-04-26 00:00 -34.73006 -59.37922 37667 ft 367 kts 277°
2026-04-26 00:00 -34.72296 -59.44076 37722 ft 367 kts 276°
2026-04-26 00:01 -34.71586 -59.50206 37760 ft 367 kts 276°
2026-04-26 00:01 -34.70870 -59.56357 37798 ft 367 kts 276°
2026-04-26 00:02 -34.70154 -59.62493 37812 ft 368 kts 276°
2026-04-26 00:02 -34.69428 -59.68673 37883 ft 368 kts 276°
2026-04-26 00:03 -34.68704 -59.74838 37943 ft 368 kts 276°
2026-04-26 00:03 -34.67979 -59.80964 37947 ft 367 kts 277°
2026-04-26 00:04 -34.67251 -59.87109 37948 ft 367 kts 277°
2026-04-26 00:04 -34.66516 -59.93259 37949 ft 367 kts 276°
2026-04-26 00:05 -34.65779 -59.99426 37951 ft 367 kts 276°
2026-04-26 00:05 -34.65036 -60.05573 37951 ft 367 kts 276°
2026-04-26 00:06 -34.64291 -60.11733 37951 ft 367 kts 277°
2026-04-26 00:06 -34.63543 -60.17899 37955 ft 367 kts 276°
2026-04-26 00:07 -34.62794 -60.24041 37954 ft 367 kts 277°
2026-04-26 00:07 -34.62043 -60.30167 37953 ft 367 kts 277°
2026-04-26 00:08 -34.61290 -60.36281 37954 ft 367 kts 277°
2026-04-26 00:08 -34.60529 -60.42432 37954 ft 367 kts 276°
2026-04-26 00:09 -34.59771 -60.48548 37958 ft 367 kts 276°
2026-04-26 00:09 -34.59008 -60.54663 37962 ft 367 kts 277°
2026-04-26 00:10 -34.58242 -60.60788 37963 ft 367 kts 277°
2026-04-26 00:10 -34.57467 -60.66947 37964 ft 367 kts 277°
2026-04-26 00:11 -34.56692 -60.73089 37960 ft 368 kts 277°
2026-04-26 00:11 -34.55915 -60.79223 37964 ft 368 kts 277°
2026-04-26 00:12 -34.55137 -60.85324 37966 ft 368 kts 277°
2026-04-26 00:12 -34.54350 -60.91475 37967 ft 367 kts 277°
2026-04-26 00:13 -34.53487 -60.97584 37971 ft 368 kts 278°
2026-04-26 00:13 -34.52534 -61.03686 37971 ft 367 kts 278°
2026-04-26 00:14 -34.51583 -61.09806 37969 ft 368 kts 278°
2026-04-26 00:14 -34.50634 -61.15910 37964 ft 368 kts 278°
2026-04-26 00:15 -34.49680 -61.22023 37958 ft 367 kts 278°
2026-04-26 00:15 -34.48724 -61.28137 37954 ft 367 kts 278°
2026-04-26 00:16 -34.47768 -61.34235 37955 ft 367 kts 278°
2026-04-26 00:16 -34.46805 -61.40364 37951 ft 367 kts 278°
2026-04-26 00:17 -34.45843 -61.46464 37952 ft 368 kts 278°
2026-04-26 00:17 -34.44881 -61.52532 37953 ft 367 kts 278°
2026-04-26 00:18 -34.43909 -61.58640 37955 ft 367 kts 278°
2026-04-26 00:18 -34.42938 -61.64700 37960 ft 367 kts 278°
2026-04-26 00:19 -34.41960 -61.70775 37960 ft 368 kts 278°
2026-04-26 00:19 -34.40983 -61.76839 37963 ft 368 kts 279°
2026-04-26 00:20 -34.39998 -61.82931 37963 ft 367 kts 279°
2026-04-26 00:20 -34.39014 -61.88984 37965 ft 367 kts 279°
2026-04-26 00:21 -34.38025 -61.95051 37963 ft 367 kts 279°
2026-04-26 00:21 -34.37032 -62.01117 37966 ft 367 kts 279°
2026-04-26 00:22 -34.36046 -62.07125 37962 ft 368 kts 278°
2026-04-26 00:22 -34.35044 -62.13220 37961 ft 368 kts 279°
2026-04-26 00:23 -34.34050 -62.19250 37962 ft 368 kts 278°
2026-04-26 00:23 -34.33054 -62.25281 37960 ft 368 kts 279°
2026-04-26 00:24 -34.32047 -62.31335 37962 ft 368 kts 279°
2026-04-26 00:24 -34.31023 -62.37474 37958 ft 368 kts 278°
2026-04-26 00:25 -34.29997 -62.43623 37963 ft 368 kts 278°
2026-04-26 00:25 -34.28971 -62.49730 37963 ft 368 kts 278°
2026-04-26 00:26 -34.27943 -62.55842 37963 ft 368 kts 278°
2026-04-26 00:26 -34.26921 -62.61902 37964 ft 368 kts 278°
2026-04-26 00:27 -34.25885 -62.68000 37967 ft 368 kts 279°
2026-04-26 00:27 -34.24855 -62.74072 37967 ft 368 kts 279°
2026-04-26 00:28 -34.23823 -62.80134 37968 ft 368 kts 279°
2026-04-26 00:28 -34.22774 -62.86261 37968 ft 368 kts 279°
2026-04-26 00:29 -34.21734 -62.92325 37965 ft 368 kts 279°
2026-04-26 00:29 -34.20692 -62.98376 37969 ft 368 kts 279°
2026-04-26 00:30 -34.19642 -63.04474 37969 ft 368 kts 279°
2026-04-26 00:30 -34.18584 -63.10573 37970 ft 369 kts 279°
2026-04-26 00:31 -34.17529 -63.16659 37970 ft 368 kts 279°
2026-04-26 00:31 -34.16473 -63.22722 37970 ft 368 kts 279°
2026-04-26 00:32 -34.15408 -63.28806 37971 ft 369 kts 279°
2026-04-26 00:32 -34.13782 -63.37958 37971 ft 370 kts 279°
2026-04-26 00:33 -34.12582 -63.44052 37972 ft 370 kts 280°
2026-04-26 00:33 -34.11368 -63.50185 37971 ft 371 kts 280°
2026-04-26 00:34 -34.10157 -63.56313 37973 ft 371 kts 280°
2026-04-26 00:34 -34.08952 -63.62395 37972 ft 371 kts 280°
2026-04-26 00:35 -34.07738 -63.68512 37974 ft 371 kts 280°
2026-04-26 00:35 -34.06533 -63.74563 37973 ft 371 kts 281°
2026-04-26 00:36 -34.05315 -63.80657 37974 ft 371 kts 280°
2026-04-26 00:36 -34.04100 -63.86729 37973 ft 372 kts 280°
2026-04-26 00:37 -34.02891 -63.92793 37973 ft 372 kts 280°
2026-04-26 00:37 -34.01681 -63.98844 37975 ft 372 kts 280°
2026-04-26 00:38 -34.00463 -64.04915 37975 ft 371 kts 280°
2026-04-26 00:38 -33.99243 -64.10976 37976 ft 371 kts 280°
2026-04-26 00:39 -33.98010 -64.17084 37977 ft 371 kts 280°
2026-04-26 00:39 -33.96787 -64.23128 37979 ft 371 kts 280°
2026-04-26 00:40 -33.95553 -64.29205 37983 ft 371 kts 280°
2026-04-26 00:40 -33.94324 -64.35244 37982 ft 371 kts 280°
2026-04-26 00:41 -33.93082 -64.41322 37981 ft 371 kts 280°
2026-04-26 00:41 -33.91846 -64.47365 37982 ft 371 kts 280°
2026-04-26 00:42 -33.90733 -64.53440 37983 ft 370 kts 278°
2026-04-26 00:42 -33.89732 -64.59538 37985 ft 370 kts 278°
2026-04-26 00:43 -33.88723 -64.65670 37989 ft 370 kts 278°
2026-04-26 00:43 -33.87713 -64.71782 37992 ft 370 kts 278°
2026-04-26 00:44 -33.86710 -64.77864 37989 ft 370 kts 278°
2026-04-26 00:44 -33.85689 -64.84016 37990 ft 370 kts 278°
2026-04-26 00:45 -33.84676 -64.90112 37988 ft 370 kts 278°
2026-04-26 00:45 -33.83660 -64.96197 37988 ft 370 kts 278°
2026-04-26 00:46 -33.82642 -65.02290 37991 ft 370 kts 278°
2026-04-26 00:46 -33.81616 -65.08393 37996 ft 370 kts 278°
2026-04-26 00:47 -33.80595 -65.14468 37998 ft 370 kts 278°
2026-04-26 00:47 -33.79573 -65.20521 38000 ft 369 kts 278°
2026-04-26 00:48 -33.78543 -65.26591 38000 ft 369 kts 278°
2026-04-26 00:48 -33.77513 -65.32650 37997 ft 369 kts 278°
2026-04-26 00:49 -33.76479 -65.38711 37998 ft 369 kts 278°
2026-04-26 00:49 -33.75442 -65.44782 37999 ft 368 kts 278°
2026-04-26 00:50 -33.74401 -65.50846 37997 ft 368 kts 278°
2026-04-26 00:50 -33.73357 -65.56898 38003 ft 368 kts 278°
2026-04-26 00:51 -33.72316 -65.62945 38005 ft 367 kts 278°
2026-04-26 00:51 -33.71262 -65.69025 38006 ft 367 kts 279°
2026-04-26 00:52 -33.70206 -65.75111 38007 ft 368 kts 279°
2026-04-26 00:52 -33.69146 -65.81187 38004 ft 367 kts 279°
2026-04-26 00:53 -33.68077 -65.87306 38006 ft 368 kts 278°
2026-04-26 00:53 -33.67014 -65.93377 38010 ft 367 kts 278°
2026-04-26 00:54 -33.65950 -65.99418 38012 ft 367 kts 278°
2026-04-26 00:54 -33.64879 -66.05502 38009 ft 368 kts 279°
2026-04-26 00:55 -33.63810 -66.11539 38012 ft 368 kts 278°
2026-04-26 00:55 -33.62740 -66.17570 38014 ft 368 kts 279°
2026-04-26 00:56 -33.61662 -66.23623 38014 ft 367 kts 278°
2026-04-26 00:56 -33.60590 -66.29639 38008 ft 367 kts 279°
2026-04-26 00:57 -33.59510 -66.35667 38010 ft 367 kts 278°
2026-04-26 00:57 -33.58425 -66.41705 38008 ft 367 kts 278°
2026-04-26 00:58 -33.57331 -66.47779 38001 ft 367 kts 278°
2026-04-26 00:58 -33.56245 -66.53793 37999 ft 367 kts 278°
2026-04-26 00:59 -33.55151 -66.59830 37994 ft 367 kts 279°
2026-04-26 00:59 -33.54052 -66.65875 37993 ft 367 kts 279°
2026-04-26 01:00 -33.52946 -66.71954 37982 ft 367 kts 279°
2026-04-26 01:00 -33.51846 -66.77969 37989 ft 367 kts 279°
2026-04-26 01:01 -33.50763 -66.83890 37991 ft 366 kts 279°
2026-04-26 01:01 -33.49669 -66.89838 37998 ft 367 kts 279°
2026-04-26 01:02 -33.48567 -66.95802 37993 ft 366 kts 279°
2026-04-26 01:02 -33.47469 -67.01755 37996 ft 366 kts 279°
2026-04-26 01:03 -33.46370 -67.07688 37985 ft 366 kts 279°
2026-04-26 01:03 -33.45265 -67.13625 37983 ft 367 kts 279°
2026-04-26 01:04 -33.44158 -67.19563 37990 ft 366 kts 279°
2026-04-26 01:04 -33.43053 -67.25478 37985 ft 367 kts 279°
2026-04-26 01:05 -33.41938 -67.31426 37990 ft 367 kts 279°
2026-04-26 01:05 -33.40824 -67.37343 37988 ft 367 kts 279°
2026-04-26 01:06 -33.39694 -67.43338 37986 ft 367 kts 279°
2026-04-26 01:06 -33.38565 -67.49311 37988 ft 367 kts 279°
2026-04-26 01:07 -33.37443 -67.55233 37993 ft 366 kts 279°
2026-04-26 01:07 -33.36312 -67.61182 37990 ft 366 kts 279°
2026-04-26 01:08 -33.35181 -67.67102 37992 ft 366 kts 279°
2026-04-26 01:08 -33.34047 -67.73028 37983 ft 366 kts 279°
2026-04-26 01:09 -33.32914 -67.78944 37990 ft 366 kts 279°
2026-04-26 01:09 -33.31786 -67.84835 37988 ft 366 kts 279°
2026-04-26 01:10 -33.30650 -67.90745 37995 ft 365 kts 279°
2026-04-26 01:10 -33.29513 -67.96620 37995 ft 365 kts 279°
2026-04-26 01:11 -33.28369 -68.02542 37992 ft 365 kts 279°
2026-04-26 01:11 -33.27227 -68.08424 37991 ft 365 kts 279°
2026-04-26 01:12 -33.26075 -68.14333 37995 ft 365 kts 279°
2026-04-26 01:12 -33.24932 -68.20196 37998 ft 365 kts 279°
2026-04-26 01:13 -33.23775 -68.26109 37998 ft 366 kts 279°
2026-04-26 01:13 -33.22612 -68.32022 37999 ft 365 kts 279°
2026-04-26 01:14 -33.21458 -68.37894 38004 ft 366 kts 280°
2026-04-26 01:14 -33.20287 -68.43816 38006 ft 368 kts 279°
2026-04-26 01:15 -33.19112 -68.49762 38012 ft 368 kts 279°
2026-04-26 01:15 -33.17927 -68.55733 38017 ft 368 kts 279°
2026-04-26 01:16 -33.16737 -68.61707 38020 ft 369 kts 279°
2026-04-26 01:16 -33.15545 -68.67692 38028 ft 370 kts 280°
2026-04-26 01:17 -33.14351 -68.73663 38034 ft 371 kts 279°
2026-04-26 01:17 -33.13148 -68.79667 38038 ft 371 kts 279°
2026-04-26 01:18 -33.11942 -68.85647 38044 ft 372 kts 279°
2026-04-26 01:18 -33.10735 -68.91648 38052 ft 372 kts 280°
2026-04-26 01:19 -33.09512 -68.97690 38060 ft 374 kts 279°
2026-04-26 01:19 -33.08269 -69.03815 38072 ft 373 kts 280°
2026-04-26 01:20 -33.07033 -69.09910 37879 ft 372 kts 280°
2026-04-26 01:20 -33.06414 -69.12939 37633 ft 371 kts 279°
2026-04-26 01:20 -33.05805 -69.15926 37387 ft 368 kts 280°
2026-04-26 01:21 -33.05199 -69.18900 37140 ft 364 kts 279°
2026-04-26 01:21 -33.04584 -69.21885 36894 ft 363 kts 280°
2026-04-26 01:21 -33.03986 -69.24819 36632 ft 362 kts 280°
2026-04-26 01:21 -33.03381 -69.27769 36287 ft 364 kts 280°
2026-04-26 01:22 -33.02771 -69.30739 35820 ft 364 kts 280°
2026-04-26 01:22 -33.02155 -69.33708 35277 ft 365 kts 279°
2026-04-26 01:22 -33.01547 -69.36671 34717 ft 365 kts 279°
2026-04-26 01:22 -33.00940 -69.39627 34120 ft 365 kts 279°
2026-04-26 01:23 -33.00335 -69.42548 33468 ft 366 kts 279°
2026-04-26 01:23 -32.99715 -69.45542 32798 ft 366 kts 279°
2026-04-26 01:23 -32.99107 -69.48492 32122 ft 367 kts 278°
2026-04-26 01:23 -32.98490 -69.51452 31442 ft 368 kts 278°
2026-04-26 01:24 -32.97872 -69.54436 30747 ft 369 kts 278°
2026-04-26 01:24 -32.97256 -69.57412 30033 ft 371 kts 278°
2026-04-26 01:24 -32.96633 -69.60395 29515 ft 368 kts 278°
2026-04-26 01:24 -32.96024 -69.63327 29098 ft 363 kts 277°
2026-04-26 01:25 -32.95414 -69.66240 28673 ft 360 kts 278°
2026-04-26 01:25 -32.94811 -69.69128 28260 ft 357 kts 277°
2026-04-26 01:25 -32.94217 -69.71988 27843 ft 354 kts 278°
2026-04-26 01:25 -32.93624 -69.74823 27407 ft 352 kts 278°
2026-04-26 01:26 -32.93033 -69.77648 26918 ft 352 kts 278°
2026-04-26 01:26 -32.92444 -69.80446 26429 ft 351 kts 278°
2026-04-26 01:26 -32.91859 -69.83244 25927 ft 351 kts 278°
2026-04-26 01:26 -32.91264 -69.86076 25471 ft 348 kts 278°
2026-04-26 01:27 -32.90681 -69.88826 25177 ft 340 kts 278°
2026-04-26 01:27 -32.90116 -69.91487 24978 ft 330 kts 278°
2026-04-26 01:27 -32.89563 -69.94090 24774 ft 320 kts 278°
2026-04-26 01:27 -32.89021 -69.96654 24601 ft 309 kts 277°
2026-04-26 01:28 -32.88559 -69.99085 24524 ft 296 kts 275°
2026-04-26 01:28 -32.88215 -70.01487 24376 ft 293 kts 272°
2026-04-26 01:28 -32.87973 -70.03876 23869 ft 294 kts 271°
2026-04-26 01:28 -32.87756 -70.06272 23382 ft 295 kts 271°
2026-04-26 01:29 -32.87534 -70.08704 22923 ft 295 kts 271°
2026-04-26 01:29 -32.87313 -70.11106 22484 ft 294 kts 271°
2026-04-26 01:29 -32.87089 -70.13547 22018 ft 295 kts 271°
2026-04-26 01:29 -32.86868 -70.15951 21540 ft 296 kts 271°
2026-04-26 01:30 -32.86643 -70.18380 21086 ft 295 kts 272°
2026-04-26 01:30 -32.86420 -70.20803 20641 ft 295 kts 272°
2026-04-26 01:30 -32.86196 -70.23218 20187 ft 296 kts 272°
2026-04-26 01:30 -32.85966 -70.25666 19720 ft 296 kts 272°
2026-04-26 01:31 -32.85739 -70.28101 19304 ft 295 kts 272°
2026-04-26 01:31 -32.85518 -70.30485 18906 ft 294 kts 273°
2026-04-26 01:31 -32.85290 -70.32910 18580 ft 290 kts 273°
2026-04-26 01:31 -32.85069 -70.35263 18273 ft 288 kts 272°
2026-04-26 01:32 -32.84849 -70.37648 17585 ft 297 kts 273°
2026-04-26 01:32 -32.84622 -70.40121 16956 ft 303 kts 274°
2026-04-26 01:32 -32.84390 -70.42624 16367 ft 307 kts 274°
2026-04-26 01:32 -32.84151 -70.45167 15798 ft 310 kts 274°
2026-04-26 01:33 -32.83914 -70.47664 15346 ft 303 kts 275°
2026-04-26 01:33 -32.83681 -70.50124 14733 ft 300 kts 275°
2026-04-26 01:33 -32.83451 -70.52569 14194 ft 295 kts 275°
2026-04-26 01:33 -32.83223 -70.54964 13781 ft 286 kts 275°
2026-04-26 01:34 -32.83002 -70.57272 13387 ft 281 kts 275°
2026-04-26 01:34 -32.82783 -70.59586 12985 ft 280 kts 275°
2026-04-26 01:34 -32.82566 -70.61881 12583 ft 280 kts 275°
2026-04-26 01:34 -32.82346 -70.64183 12212 ft 280 kts 275°
2026-04-26 01:35 -32.82126 -70.66491 11833 ft 281 kts 276°
2026-04-26 01:35 -32.82035 -70.68803 11421 ft 282 kts 261°
2026-04-26 01:35 -32.82756 -70.70946 11002 ft 283 kts 234°
2026-04-26 01:35 -32.84134 -70.72612 10614 ft 283 kts 223°
2026-04-26 01:36 -32.85618 -70.74197 10246 ft 283 kts 223°
2026-04-26 01:36 -32.87074 -70.75772 9876 ft 284 kts 223°
2026-04-26 01:36 -32.88543 -70.77381 9496 ft 286 kts 223°
2026-04-26 01:37 -32.91598 -70.80521 8673 ft 286 kts 207°
2026-04-26 01:37 -32.93492 -70.81111 8374 ft 282 kts 180°
2026-04-26 01:37 -32.95448 -70.81014 8054 ft 279 kts 175°
2026-04-26 01:37 -32.97410 -70.80869 7726 ft 278 kts 176°
2026-04-26 01:38 -32.99327 -70.80740 7384 ft 277 kts 176°
2026-04-26 01:38 -33.01256 -70.80621 7095 ft 273 kts 176°
2026-04-26 01:38 -33.03117 -70.80513 6903 ft 265 kts 176°
2026-04-26 01:38 -33.04935 -70.80411 6729 ft 256 kts 176°
2026-04-26 01:39 -33.06691 -70.80317 6562 ft 248 kts 176°
2026-04-26 01:39 -33.08389 -70.80227 6404 ft 240 kts 177°
2026-04-26 01:39 -33.10068 -70.80138 6273 ft 238 kts 176°
2026-04-26 01:39 -33.11712 -70.80051 6125 ft 237 kts 176°
2026-04-26 01:40 -33.13365 -70.79963 5991 ft 236 kts 176°
2026-04-26 01:40 -33.15007 -70.79876 5817 ft 237 kts 176°
2026-04-26 01:40 -33.16660 -70.79788 5523 ft 237 kts 176°
2026-04-26 01:40 -33.18140 -70.79710 5255 ft 236 kts 176°
2026-04-26 01:41 -33.19774 -70.79623 4955 ft 236 kts 176°
2026-04-26 01:41 -33.21416 -70.79535 4656 ft 235 kts 176°
2026-04-26 01:41 -33.23045 -70.79447 4357 ft 235 kts 176°
2026-04-26 01:41 -33.24671 -70.79360 4052 ft 234 kts 176°
2026-04-26 01:42 -33.26281 -70.79274 3731 ft 221 kts 176°
2026-04-26 01:42 -33.27747 -70.79196 3499 ft 200 kts 176°
2026-04-26 01:42 -33.29092 -70.79125 3246 ft 182 kts 176°
2026-04-26 01:42 -33.30286 -70.79060 3015 ft 164 kts 176°
2026-04-26 01:43 -33.31383 -70.79001 2771 ft 150 kts 175°
2026-04-26 01:43 -33.32392 -70.78946 2553 ft 137 kts 175°
2026-04-26 01:43 -33.33329 -70.78895 2395 ft 134 kts 175°
2026-04-26 01:43 -33.34258 -70.78844 2232 ft 132 kts 175°
2026-04-26 01:44 -33.35183 -70.78794 2060 ft 131 kts 176°
2026-04-26 01:44 -33.36083 -70.78746 1892 ft 129 kts 176°
2026-04-26 01:44 -33.36985 -70.78697 1714 ft 127 kts 175°
2026-04-26 01:44 -33.37865 -70.78655 1567 ft 123 kts 175°
2026-04-26 01:45 -33.38566 -70.78612 1564 ft 76 kts 177°
2026-04-26 01:45 -33.38967 -70.78616 1564 ft 44 kts 184°
2026-04-26 01:45 -33.39159 -70.78682 1564 ft 20 kts 202°
2026-04-26 01:45 -33.39275 -70.78747 1564 ft 18 kts 206°
2026-04-26 01:46 -33.39387 -70.78816 1564 ft 17 kts 209°
2026-04-26 01:46 -33.39485 -70.78889 1564 ft 11 kts 245°
2026-04-26 01:46 -33.39499 -70.78990 1564 ft 12 kts 262°
2026-04-26 01:46 -33.39530 -70.79073 1564 ft 7 kts 189°
2026-04-26 01:47 -33.39570 -70.79071 1564 ft 3 kts 184°
2026-04-26 01:47 -33.39573 -70.79072 1564 ft 0 kts 185°